Torna al catalogo

STARLINK-30462

AttivoComunicazioniVLEO
NORAD 57902·PAYLOAD·🇺🇸 United States

Lanciato Sep 20, 2023 da Cape Canaveral Space Force Station

Loading…

Prossimi Passaggi (prossime 24 ore)

TLE

AggiornatoSource: CelesTrak SupGP

Epoca: Sep 14, 2026, 22:30 UTC

1 57902C 23146M   26257.93798611 -.00013502  00000+0 -48903-3 0  2571
2 57902  43.0036 325.6359 0001544 266.1980 210.9050 15.27586042    18

Traccia STARLINK-30462 in tempo reale con AllMySat

Download on the App Store